Find Starlink 30041

NORAD ID: 57613 Int'l Des: 2023-119 Owner: SPXS Country: US Constellation: starlink operational
LEOCIRCULAR

リアルタイム位置

3D地球を読み込み中...

Starlink 30041について

説明を読み込み中...

次回通過

Passes for default location (London). Set your location on the main map for personalized predictions.

高度履歴

Loading altitude history...

軌道要素

1 57613U 23119M 26125.01761913 -.00001768 00000-0 -54762-4 0 9994
2 57613 43.0004 123.2371 0001214 281.7060 78.3655 15.27559764151705
Epoch: May 5, 2026 • Age: 15 hours

現在のステータス

高度 493.5 km
速度 7.62 km/s
衛星直下点 -37.45°S, 103.14°W
打ち上げ日 Aug 11, 2023
運用期間 2.7 years
タイプ internet

技術仕様

分類 Payload
質量 730.00 kg
乾燥質量 700.00 kg
総質量 730.00 kg
長さ 0.30 m
直径 4.10 m
スパン 29.00 m
形状 Box + pan
製造者 SPXS
バスタイプ Starlink V2M
フェーズステータス In Orbit
所有者/国 SPXS/US

Most Searched